[[{"header":{"parameterUnit":"m.s-1","parameterCategory":2,"la1":30.2992,"la2":30.254,"lo1":-89.0895,"lo2":-89.0443,"dy":0.0025,"dx":0.0025,"nx":19,"ny":19,"refTime":"2026-03-16T03:00:00:Z","depth":"0","parameterNumber":2,"parameterNumberName":"U-component_of_CURRENTS"},"data":[0,0,0,0.3971,0.3973,0.4028,0.4028,0.4092,0.4093,0,0,0,0,0,0,0,0,0,0,0,0.3943,0.3944,0.3971,0.3973,0.4028,0.4028,0.4092,0.4093,0,0,0,0,0,0,0,0,0,0,0,0.3943,0.3944,0.3944,0.3973,0.4028,0.4028,0.4092,0.4048,0,0,0,0,0,0,0,0,0,0,0.3994,0.3974,0.3944,0.3945,0.3974,0.4028,0.4028,0.4046,0.4051,0.407,0,0.4086,0,0.4103,0.4098,0.4099,0,0,0,0.3957,0.3969,0.3991,0.3945,0.3975,0.4028,0.3999,0.4048,0.4054,0.4077,0.4087,0.409,0.4104,0.4099,0.4099,0.4234,0.4234,0,0,0.3954,0.3946,0.3987,0.3995,0.3999,0.3997,0.4001,0.4052,0.4058,0.4087,0.4092,0.4105,0.4099,0.41,0.4233,0.4234,0,0,0,0.3956,0.3944,0.3963,0.3991,0.4009,0.3999,0.4003,0.4055,0.4064,0.4092,0.4106,0.41,0.4101,0.4232,0.4233,0.4299,0,0,0,0.3953,0.3947,0.3962,0.3957,0.4008,0.4035,0.4006,0.406,0.4067,0.4106,0.41,0.4102,0.4231,0.4233,0.4295,0.4337,0,0,0,0.3939,0.3945,0.3956,0.3957,0.399,0.4034,0.4045,0.4061,0.4076,0.4099,0.4102,0.423,0.4232,0.4292,0.4331,0.4461,0,0,0,0.3923,0.3953,0.3956,0.3995,0.399,0.406,0.4045,0.4086,0.4108,0.41,0.4231,0.4233,0.4291,0.4327,0.4456,0.4564,0.4597,0,0,0.3952,0.3956,0.3979,0.3984,0.4056,0.4051,0.4135,0.4147,0.4147,0.4209,0.4212,0.4297,0.433,0.446,0.4679,0.4709,0,0,0,0.3984,0.4006,0.4028,0.4068,0.4109,0.4173,0.4186,0.421,0.4265,0.4174,0.4319,0.4339,0.4419,0.4473,0.4497,0.4744,0.4242,0.4242,0.4242,0.4024,0.4043,0.409,0.4133,0.4183,0.4257,0.431,0.435,0.4329,0.4371,0.4409,0.4573,0.4631,0.4651,0.4903,0.442,0.442,0.4421,0.4421,0.4074,0.4095,0.4132,0.4178,0.4246,0.4317,0.4435,0.445,0.4575,0.4503,0.4578,0.4559,0.4681,0.4941,0.4425,0.4425,0.4424,0.4424,0.4423,0.4097,0.4103,0.4123,0.4193,0.4283,0.4374,0.4523,0.4616,0.4649,0.4719,0.4831,0.4831,0.505,0.478,0.4781,0.4782,0.4782,0.4783,0.4783,0.4088,0.4113,0.4145,0.4233,0.4273,0.4417,0.461,0.4709,0.4895,0.494,0.4942,0.5161,0.4684,0.466,0.4795,0.4793,0.4792,0.479,0.479,0.406,0.4099,0.4149,0.4186,0.4306,0.4443,0.4658,0.495,0.5083,0.5197,0.551,0.5074,0.508,0.5061,0.5047,0.5275,0.5275,0.5275,0.5275,0.4026,0.4063,0.4092,0.4147,0.4264,0.4434,0.4684,0.5026,0.5514,0.5789,0.585,0.5809,0.5778,0.5821,0.5784,0.5783,0.6193,0.6195,0.6196,0.3965,0.4012,0.3992,0.4088,0.4203,0.4388,0.4648,0.5151,0.592,0.6255,0.6187,0.6148,0.6098,0.6029,0.6089,0.6019,0.601,0,0]},{"header":{"parameterUnit":"m.s-1","parameterCategory":2,"la1":30.2992,"la2":30.254,"lo1":-89.0895,"lo2":-89.0443,"dy":0.0025,"dx":0.0025,"nx":19,"ny":19,"refTime":"2026-03-16T03:00:00:Z","depth":"0","parameterNumber":3,"parameterNumberName":"V-component_of_CURRENTS"},"data":[0,0,0,-0.0106,-0.0106,-0.0135,-0.0136,-0.0215,-0.0216,0,0,0,0,0,0,0,0,0,0,0,-0.0099,-0.0099,-0.0106,-0.0106,-0.0135,-0.0136,-0.0215,-0.0216,0,0,0,0,0,0,0,0,0,0,0,-0.0099,-0.0099,-0.0099,-0.0106,-0.0135,-0.0136,-0.0215,-0.0187,0,0,0,0,0,0,0,0,0,0,-0.0155,-0.014,-0.0099,-0.0099,-0.0106,-0.0135,-0.0136,-0.0185,-0.0189,-0.0208,0,-0.0201,0,-0.0202,-0.022,-0.022,0,0,0,-0.0125,-0.0137,-0.0137,-0.0099,-0.0106,-0.0135,-0.0127,-0.0187,-0.0191,-0.0213,-0.0202,-0.0205,-0.0203,-0.0221,-0.0221,-0.0203,-0.0202,0,0,-0.0123,-0.0117,-0.0134,-0.0139,-0.01,-0.0126,-0.0128,-0.0189,-0.0192,-0.0202,-0.0206,-0.0204,-0.0221,-0.0222,-0.0203,-0.0202,0,0,0,-0.0106,-0.0116,-0.0114,-0.0136,-0.0133,-0.0127,-0.0129,-0.019,-0.0187,-0.0207,-0.0205,-0.0222,-0.0222,-0.0204,-0.0203,-0.0062,0,0,0,-0.0106,-0.0105,-0.0113,-0.0112,-0.0131,-0.0156,-0.0128,-0.0183,-0.0189,-0.0205,-0.0222,-0.0223,-0.0205,-0.0203,-0.0067,0.0015,0,0,0,-0.0101,-0.0105,-0.0101,-0.0111,-0.0114,-0.0155,-0.0156,-0.0184,-0.0188,-0.0221,-0.0223,-0.0205,-0.0204,-0.0072,0.0005,0.0081,0,0,0,-0.0104,-0.0062,-0.0101,-0.0049,-0.0114,-0.0071,-0.0156,-0.0152,-0.0171,-0.0222,-0.0205,-0.0203,-0.0074,-0.0001,0.0075,0.0236,0.0276,0,0,-0.0043,-0.0055,-0.0018,-0.0053,0.0027,-0.0069,-0.0005,-0.0079,-0.0154,-0.0193,-0.0193,-0.0065,0.0005,0.008,0.0334,0.0372,0,0,0,0.0007,0.0038,0.0054,0.0087,0.0088,0.0102,0.0023,-0.0015,-0.0054,-0.0154,-0.007,-0.003,0.0013,0.0096,0.0126,0.0014,-0.0195,-0.0195,-0.0195,0.0087,0.011,0.0189,0.0218,0.0241,0.0212,0.021,0.0143,0.0045,0.0047,0.008,0.0231,0.0323,0.0347,0.0229,0.0063,0.0064,0.0064,0.0065,0.0217,0.0274,0.0304,0.0385,0.0393,0.043,0.0391,0.0327,0.0314,0.0204,0.0238,0.0236,0.0389,0.025,0.0074,0.0072,0.0071,0.007,0.007,0.0278,0.0314,0.0362,0.0495,0.058,0.0579,0.0686,0.0598,0.0467,0.0497,0.0554,0.0553,0.0435,0.0505,0.0505,0.0506,0.0507,0.0507,0.0508,0.032,0.0379,0.0492,0.0618,0.0718,0.0843,0.0858,0.0868,0.0832,0.0741,0.0741,0.0493,0.0365,0.0351,0.0519,0.0517,0.0515,0.0514,0.0514,0.042,0.0438,0.063,0.0744,0.0995,0.124,0.1221,0.1297,0.1231,0.1252,0.0883,0.0858,0.0829,0.0804,0.08,0.1074,0.1074,0.1074,0.1075,0.0477,0.05,0.0768,0.0985,0.124,0.1425,0.176,0.1817,0.1491,0.13,0.1046,0.096,0.0942,0.091,0.0883,0.0875,0.1161,0.1161,0.116,0.0568,0.0638,0.0843,0.1049,0.1353,0.166,0.2074,0.2404,0.181,0.1141,0.086,0.0857,0.0696,0.0677,0.0587,0.0559,0.0531,0,0]}],[{"header":{"parameterUnit":"m.s-1","parameterCategory":2,"la1":30.2992,"la2":30.254,"lo1":-89.0895,"lo2":-89.0443,"dy":0.0025,"dx":0.0025,"nx":19,"ny":19,"refTime":"2026-03-16T03:00:00:Z","depth":"2","parameterNumber":2,"parameterNumberName":"U-component_of_CURRENTS"},"data":[0,0,0,0.3931,0.3933,0.3998,0.3998,0.4065,0.4066,0,0,0,0,0,0,0,0,0,0,0,0.39,0.39,0.3931,0.3934,0.3998,0.3998,0.4065,0.4066,0,0,0,0,0,0,0,0,0,0,0,0.3899,0.39,0.3901,0.3934,0.3998,0.3998,0.4065,0.4016,0,0,0,0,0,0,0,0,0,0,0.3953,0.3931,0.39,0.3901,0.3934,0.3998,0.3998,0.4014,0.4019,0.4037,0,0.4055,0,0.4074,0.4072,0.4072,0,0,0,0.3917,0.3926,0.3951,0.3901,0.3935,0.3998,0.3964,0.4017,0.4023,0.4044,0.4056,0.4059,0.4076,0.4072,0.4073,0.4207,0.4207,0,0,0.3913,0.3903,0.3947,0.3955,0.3963,0.3962,0.3967,0.402,0.4027,0.4056,0.4061,0.4077,0.4073,0.4074,0.4206,0.4207,0,0,0,0.3914,0.3901,0.3924,0.3952,0.3972,0.3965,0.3969,0.4024,0.4034,0.4062,0.4077,0.4073,0.4074,0.4205,0.4206,0.4272,0,0,0,0.3911,0.3903,0.3922,0.3916,0.3972,0.4002,0.3972,0.403,0.4037,0.4077,0.4073,0.4075,0.4204,0.4205,0.4268,0.4309,0,0,0,0.3895,0.3901,0.3913,0.3915,0.3953,0.4002,0.4014,0.4032,0.4048,0.4072,0.4076,0.4203,0.4205,0.4265,0.4303,0.4431,0,0,0,0.3875,0.3907,0.3913,0.3955,0.3953,0.4028,0.4014,0.4058,0.4082,0.4074,0.4204,0.4206,0.4264,0.4299,0.4426,0.4445,0.447,0,0,0.3905,0.391,0.3936,0.3943,0.4019,0.4017,0.4104,0.4119,0.4119,0.418,0.4183,0.4269,0.4302,0.443,0.4558,0.458,0,0,0,0.3939,0.3962,0.3986,0.4029,0.4075,0.4141,0.4157,0.4181,0.4237,0.4147,0.4291,0.4311,0.4389,0.439,0.4408,0.4215,0.4215,0.4215,0.4215,0.3975,0.3998,0.4047,0.4094,0.4147,0.4225,0.428,0.432,0.4301,0.4343,0.438,0.4543,0.4542,0.4556,0.4391,0.4391,0.4392,0.4392,0.4392,0.4026,0.405,0.4088,0.4138,0.4209,0.4282,0.4402,0.4419,0.4543,0.4473,0.4547,0.4477,0.458,0.4398,0.4397,0.4396,0.4395,0.4395,0.4395,0.4048,0.4058,0.4078,0.4151,0.4243,0.4338,0.4487,0.4582,0.4616,0.4687,0.4738,0.4737,0.4605,0.4748,0.4748,0.4749,0.475,0.475,0.4751,0.4044,0.4068,0.4102,0.4191,0.4233,0.4379,0.4574,0.4673,0.4821,0.4838,0.4838,0.4664,0.4653,0.4628,0.4763,0.476,0.4759,0.4758,0.4757,0.4023,0.4061,0.4112,0.4149,0.427,0.4186,0.4567,0.4824,0.4993,0.508,0.4939,0.4931,0.4928,0.4912,0.4895,0.5091,0.5091,0.5091,0.5091,0.3996,0.4032,0.4062,0.4117,0.4233,0.4112,0.403,0.4065,0.4417,0.4466,0.449,0.4326,0.4333,0.4283,0.4281,0.4245,0.4271,0.4268,0.4265,0.394,0.3987,0.3969,0.4062,0.4176,0.3847,0.3376,0.3021,0.3512,0.42,0.4007,0.5102,0.4927,0.491,0.4884,0.4861,0.4824,0,0]},{"header":{"parameterUnit":"m.s-1","parameterCategory":2,"la1":30.2992,"la2":30.254,"lo1":-89.0895,"lo2":-89.0443,"dy":0.0025,"dx":0.0025,"nx":19,"ny":19,"refTime":"2026-03-16T03:00:00:Z","depth":"2","parameterNumber":3,"parameterNumberName":"V-component_of_CURRENTS"},"data":[0,0,0,-0.007,-0.007,-0.0104,-0.0104,-0.0185,-0.0185,0,0,0,0,0,0,0,0,0,0,0,-0.0061,-0.0061,-0.007,-0.007,-0.0104,-0.0104,-0.0184,-0.0185,0,0,0,0,0,0,0,0,0,0,0,-0.0061,-0.0061,-0.0061,-0.007,-0.0104,-0.0104,-0.0184,-0.0154,0,0,0,0,0,0,0,0,0,0,-0.0118,-0.0101,-0.0061,-0.0061,-0.007,-0.0104,-0.0104,-0.0152,-0.0156,-0.0174,0,-0.0168,0,-0.017,-0.019,-0.019,0,0,0,-0.0088,-0.0098,-0.01,-0.0061,-0.007,-0.0104,-0.0094,-0.0154,-0.0158,-0.0179,-0.0169,-0.0172,-0.0172,-0.019,-0.0191,-0.0172,-0.0171,0,0,-0.0086,-0.0079,-0.0097,-0.0102,-0.0065,-0.0092,-0.0094,-0.0156,-0.016,-0.017,-0.0174,-0.0173,-0.0191,-0.0191,-0.0172,-0.0171,0,0,0,-0.0069,-0.0077,-0.0078,-0.0099,-0.0098,-0.0093,-0.0095,-0.0157,-0.0155,-0.0175,-0.0174,-0.0191,-0.0192,-0.0173,-0.0172,-0.0031,0,0,0,-0.0068,-0.0066,-0.0077,-0.0075,-0.0096,-0.0123,-0.0095,-0.0151,-0.0157,-0.0174,-0.0191,-0.0193,-0.0174,-0.0173,-0.0037,0.0045,0,0,0,-0.0062,-0.0066,-0.0063,-0.0074,-0.0079,-0.0122,-0.0124,-0.0152,-0.0157,-0.019,-0.0193,-0.0174,-0.0173,-0.0042,0.0036,0.0111,0,0,0,-0.0063,-0.0022,-0.0063,-0.0012,-0.0079,-0.0038,-0.0124,-0.0122,-0.014,-0.0191,-0.0174,-0.0172,-0.0043,0.003,0.0105,0.0258,0.0298,0,0,-0.0003,-0.0015,0.002,-0.0016,0.0062,-0.0036,0.0027,-0.0048,-0.0123,-0.0162,-0.0161,-0.0035,0.0035,0.011,0.0357,0.0394,0,0,0,0.0046,0.0076,0.0091,0.0122,0.0121,0.0134,0.0054,0.0016,-0.0024,-0.0124,-0.004,0.0,0.0043,0.0122,0.0152,-0.0164,-0.0164,-0.0164,-0.0165,0.0127,0.0149,0.0226,0.0253,0.0274,0.0244,0.0241,0.0173,0.0076,0.0077,0.0111,0.0261,0.0348,0.0372,0.0093,0.0094,0.0095,0.0095,0.0095,0.0257,0.0312,0.0341,0.0421,0.0426,0.0462,0.0423,0.0358,0.0345,0.0234,0.0268,0.0262,0.0413,0.0106,0.0104,0.0103,0.0102,0.0101,0.01,0.0318,0.0352,0.0399,0.0531,0.0614,0.0612,0.0717,0.0629,0.0497,0.0527,0.0579,0.0577,0.0356,0.0533,0.0534,0.0535,0.0536,0.0536,0.0537,0.0358,0.0417,0.0529,0.0653,0.0752,0.0875,0.0889,0.0898,0.0857,0.0764,0.0764,0.0409,0.0394,0.038,0.0548,0.0546,0.0544,0.0543,0.0542,0.0454,0.0473,0.0663,0.0777,0.1027,0.1308,0.1256,0.1327,0.1254,0.1272,0.089,0.0878,0.0849,0.0824,0.082,0.1091,0.1091,0.1091,0.1091,0.0508,0.0532,0.0798,0.1014,0.127,0.1504,0.183,0.1752,0.1486,0.1299,0.1289,0.1222,0.1197,0.1178,0.1145,0.1143,0.1499,0.1499,0.15,0.0596,0.0667,0.087,0.1077,0.1381,0.1775,0.2182,0.2107,0.1658,0.1507,0.1272,0.1135,0.1006,0.0978,0.0914,0.0876,0.0858,0,0]}],[{"header":{"parameterUnit":"m.s-1","parameterCategory":2,"la1":30.2992,"la2":30.254,"lo1":-89.0895,"lo2":-89.0443,"dy":0.0025,"dx":0.0025,"nx":19,"ny":19,"refTime":"2026-03-16T03:00:00:Z","depth":"4","parameterNumber":2,"parameterNumberName":"U-component_of_CURRENTS"},"data":[0,0,0,0.2104,0.2109,0.2356,0.2357,0.2516,0.2517,0,0,0,0,0,0,0,0,0,0,0,0.2023,0.2026,0.2103,0.211,0.2356,0.2357,0.2516,0.2517,0,0,0,0,0,0,0,0,0,0,0,0.2022,0.2025,0.2028,0.2111,0.2356,0.2357,0.2516,0.2365,0,0,0,0,0,0,0,0,0,0,0.2144,0.2093,0.2024,0.2028,0.2112,0.2356,0.2357,0.236,0.2375,0.2363,0,0.2427,0,0.2477,0.2525,0.2526,0,0,0,0.2098,0.2081,0.2154,0.2028,0.2115,0.2356,0.2242,0.2369,0.2386,0.2382,0.243,0.2437,0.248,0.2526,0.2527,0.2688,0.2689,0,0,0.2084,0.2054,0.2143,0.2165,0.221,0.2234,0.2249,0.2381,0.2403,0.2431,0.2442,0.2483,0.2527,0.2528,0.2687,0.2688,0,0,0,0.2053,0.2045,0.2117,0.2157,0.2217,0.2241,0.2259,0.2398,0.2426,0.2444,0.2485,0.2528,0.2529,0.2686,0.2687,0.2769,0,0,0,0.2044,0.2028,0.2112,0.2094,0.2216,0.2331,0.2273,0.2417,0.2434,0.2484,0.2528,0.253,0.2685,0.2687,0.2765,0.2794,0,0,0,0.2006,0.2023,0.2063,0.2092,0.2206,0.2331,0.2367,0.2422,0.2458,0.2526,0.2531,0.2684,0.2686,0.2761,0.2787,0.2895,0,0,0,0.1949,0.2002,0.2063,0.2143,0.2204,0.2344,0.2367,0.2478,0.2541,0.2528,0.2685,0.2687,0.276,0.2784,0.289,0.2461,0,0,0,0.1969,0.2005,0.205,0.211,0.2235,0.2307,0.244,0.2536,0.2563,0.2626,0.2632,0.2767,0.2787,0.2894,0.2584,0,0,0,0,0.2024,0.2058,0.2108,0.2209,0.232,0.2445,0.2542,0.2596,0.2713,0.2616,0.2785,0.2795,0.286,0.2596,0.2697,0.2697,0.2697,0.2696,0.2696,0.1961,0.2051,0.2133,0.2263,0.2368,0.2546,0.265,0.2743,0.2757,0.2833,0.2876,0.3029,0.2752,0.2894,0.2895,0.2895,0.2896,0.2896,0.2896,0.1947,0.1985,0.2139,0.2253,0.2422,0.256,0.2766,0.2838,0.3009,0.2968,0.3029,0.2715,0.2905,0.2903,0.2902,0.2901,0.29,0.29,0.2899,0.1847,0.1884,0.1993,0.2167,0.2374,0.259,0.2775,0.2968,0.3081,0.3164,0.2926,0.3105,0.3085,0.3227,0.3228,0.3229,0.3229,0.323,0.323,0.1689,0.1802,0.1872,0.2087,0.2211,0.2456,0.2815,0.2938,0.3133,0.2979,0.3219,0.3141,0.313,0.3106,0.324,0.3238,0.3237,0.3236,0.3235,0.1561,0.1616,0.1693,0.1795,0.2051,0.2204,0.2605,0.2796,0.2904,0.2883,0.2882,0.2897,0.2836,0.2834,0.2795,0.2843,0.2838,0.2833,0,0.1442,0.1483,0.1541,0.1614,0.1728,0.203,0.2108,0.2343,0.2556,0.2442,0.2876,0.2866,0.2875,0.2796,0.2786,0.2733,0,0,0,0.1358,0.1396,0.1371,0.1458,0.1554,0.1791,0.2117,0.2109,0.2516,0.2535,0.2708,0.2741,0.303,0.3268,0.3212,0.3199,0.3157,0,0]},{"header":{"parameterUnit":"m.s-1","parameterCategory":2,"la1":30.2992,"la2":30.254,"lo1":-89.0895,"lo2":-89.0443,"dy":0.0025,"dx":0.0025,"nx":19,"ny":19,"refTime":"2026-03-16T03:00:00:Z","depth":"4","parameterNumber":3,"parameterNumberName":"V-component_of_CURRENTS"},"data":[0,0,0,0.0518,0.0517,0.0457,0.0457,0.0381,0.0381,0,0,0,0,0,0,0,0,0,0,0,0.0545,0.0545,0.0518,0.0517,0.0457,0.0457,0.0381,0.0381,0,0,0,0,0,0,0,0,0,0,0,0.0545,0.0545,0.0545,0.0517,0.0457,0.0457,0.0381,0.0424,0,0,0,0,0,0,0,0,0,0,0.0482,0.0516,0.0545,0.0545,0.0517,0.0457,0.0457,0.0426,0.0422,0.0412,0,0.0412,0,0.0396,0.0376,0.0376,0,0,0,0.0508,0.052,0.0498,0.0545,0.0516,0.0457,0.0482,0.0424,0.0418,0.0406,0.0411,0.0408,0.0395,0.0376,0.0376,0.0358,0.0359,0,0,0.0511,0.0536,0.0502,0.0495,0.0514,0.0484,0.048,0.042,0.0424,0.0411,0.0406,0.0394,0.0376,0.0375,0.0358,0.0358,0,0,0,0.0527,0.0539,0.0518,0.0499,0.0488,0.0482,0.0478,0.0427,0.0419,0.0405,0.0393,0.0375,0.0374,0.0358,0.0358,0.0459,0,0,0,0.0529,0.0548,0.0519,0.0533,0.049,0.0458,0.0486,0.0423,0.0415,0.0393,0.0375,0.0374,0.0358,0.0358,0.0455,0.0518,0,0,0,0.0545,0.0549,0.0545,0.0535,0.0511,0.0459,0.0447,0.042,0.0408,0.0376,0.0374,0.0357,0.0358,0.0452,0.0512,0.0528,0,0,0,0.0567,0.0591,0.0546,0.0571,0.0512,0.0509,0.0447,0.0434,0.0414,0.0375,0.0358,0.0358,0.0451,0.0508,0.0525,0.057,0,0,0,0.0613,0.0597,0.0612,0.0571,0.0599,0.0516,0.0537,0.0479,0.0418,0.0375,0.0374,0.0456,0.0511,0.0527,0.0607,0,0,0,0,0.0637,0.0656,0.0655,0.0658,0.0628,0.0617,0.0548,0.051,0.0465,0.0409,0.0442,0.0473,0.048,0.0495,0.0362,0.0361,0.0361,0.0361,0.0361,0.0743,0.0724,0.0767,0.0748,0.0741,0.0683,0.0663,0.0596,0.0528,0.0518,0.0543,0.0612,0.0632,0.0518,0.0519,0.0519,0.0519,0.052,0.052,0.0846,0.0875,0.086,0.0897,0.0866,0.087,0.0783,0.0725,0.0679,0.0615,0.0615,0.0587,0.0529,0.0528,0.0526,0.0525,0.0524,0.0524,0.0523,0.0932,0.0942,0.0972,0.1031,0.106,0.1003,0.1026,0.0926,0.0789,0.0792,0.0766,0.0673,0.0676,0.0778,0.0779,0.0779,0.0779,0.078,0.078,0.1003,0.1032,0.1114,0.1172,0.123,0.1259,0.1179,0.1123,0.0974,0.0896,0.0819,0.0699,0.069,0.0689,0.0785,0.0784,0.0784,0.0783,0.0783,0.1083,0.112,0.1247,0.1331,0.146,0.1486,0.1423,0.1245,0.1187,0.1077,0.0927,0.0918,0.0882,0.0869,0.0872,0.1027,0.1028,0.1029,0,0.1144,0.1165,0.1349,0.1503,0.1626,0.1619,0.1559,0.144,0.121,0.1202,0.1178,0.1017,0.1006,0.0973,0.0962,0.0972,0,0,0,0.1196,0.125,0.1385,0.1541,0.1694,0.1613,0.1535,0.1457,0.1259,0.1166,0.1053,0.1046,0.0955,0.0802,0.0725,0.0715,0.0708,0,0]}]]